| time (UTC) | temp C | wind direction | speed KPH | gust KPH | rain 1hr cm | rain 24hr cm | rain mn cm | humidity % | barometer mb |
| 20260504045404 | 6 | 209 | 0.0 | 1.6 | 0.00 | 0.00 | 0.00 | 83 | 1015.8 |
| 20260504044904 | 6 | 209 | 0.0 | 0.0 | 0.00 | 0.00 | 0.00 | 81 | 1015.6 |
| 20260504044404 | 6 | 209 | 0.0 | 0.0 | 0.00 | 0.00 | 0.00 | 81 | 1015.7 |
| 20260504043905 | 6 | 209 | 0.0 | 0.0 | 0.00 | 0.00 | 0.00 | 81 | 1015.6 |
| 20260504043404 | 6 | 209 | 0.0 | 0.0 | 0.00 | 0.00 | 0.00 | 81 | 1015.5 |
| 20260504043137 | 6 | 209 | 0.0 | 0.0 | 0.00 | 0.00 | 0.00 | 80 | 1015.6 |
| 20260504042636 | 6 | 209 | 0.0 | 0.0 | 0.00 | 0.00 | 0.00 | 80 | 1015.5 |
| 20260504041904 | 6 | 209 | 0.0 | 0.0 | 0.00 | 0.00 | 0.00 | 81 | 1015.5 |
| 20260504041405 | 6 | 209 | 0.0 | 0.0 | 0.00 | 0.00 | 0.00 | 82 | 1015.5 |
| 20260504041133 | 6 | 209 | 0.0 | 0.0 | 0.00 | 0.00 | 0.00 | 81 | 1015.5 |
| 20260504040402 | 6 | 209 | 0.0 | 0.0 | 0.00 | 0.00 | 0.00 | 80 | 1015.4 |
| 20260504035852 | 6 | 209 | 0.0 | 0.0 | 0.00 | 0.00 | 0.00 | 80 | 1015.3 |
| 20260504035346 | 6 | 209 | 0.0 | 0.0 | 0.00 | 0.00 | 0.00 | 80 | 1015.3 |
| 20260504034840 | 6 | 209 | 0.0 | 0.0 | 0.00 | 0.00 | 0.00 | 81 | 1015.4 |
| 20260504034558 | 6 | 209 | 0.0 | 0.0 | 0.00 | 0.00 | 0.00 | 82 | 1015.3 |
| 20260504034051 | 6 | 209 | 0.0 | 0.0 | 0.00 | 0.00 | 0.00 | 83 | 1015.5 |
| 20260504033546 | 6 | 209 | 0.0 | 0.0 | 0.00 | 0.00 | 0.00 | 80 | 1015.6 |
| 20260504032808 | 6 | 209 | 0.0 | 0.0 | 0.00 | 0.00 | 0.00 | 82 | 1015.5 |
| 20260504032530 | 6 | 209 | 0.0 | 0.0 | 0.00 | 0.00 | 0.00 | 82 | 1015.5 |
| 20260504031753 | 6 | 209 | 0.0 | 0.0 | 0.00 | 0.00 | 0.00 | 81 | 1015.5 |
| 20260504031240 | 6 | 209 | 0.0 | 0.0 | 0.00 | 0.00 | 0.00 | 80 | 1015.4 |
| 20260504030733 | 6 | 209 | 0.0 | 0.0 | 0.00 | 0.00 | 0.00 | 79 | 1015.3 |
| 20260504030226 | 6 | 209 | 0.0 | 0.0 | 0.00 | 0.00 | 0.00 | 79 | 1015.4 |
| 20260504025716 | 6 | 209 | 0.0 | 0.0 | 0.00 | 0.00 | 0.00 | 77 | 1015.5 |
| 20260504025210 | 6 | 209 | 0.0 | 0.0 | 0.00 | 0.00 | 0.00 | 76 | 1015.5 |
| 20260504024705 | 6 | 209 | 0.0 | 0.0 | 0.00 | 0.00 | 0.00 | 76 | 1015.4 |
| 20260504024425 | 7 | 209 | 0.0 | 0.0 | 0.00 | 0.00 | 0.00 | 74 | 1015.4 |
| 20260504023648 | 7 | 209 | 0.0 | 0.0 | 0.00 | 0.00 | 0.00 | 75 | 1015.5 |
| 20260504023142 | 7 | 209 | 0.0 | 3.2 | 0.00 | 0.00 | 0.00 | 75 | 1015.4 |
| 20260504022903 | 7 | 209 | 1.6 | 4.8 | 0.00 | 0.00 | 0.00 | 75 | 1015.3 |
| 20260504022128 | 7 | 209 | 1.6 | 4.8 | 0.00 | 0.00 | 0.00 | 75 | 1015.3 |
| 20260504021628 | 7 | 209 | 1.6 | 3.2 | 0.00 | 0.00 | 0.00 | 73 | 1015.3 |
| 20260504021128 | 7 | 209 | 1.6 | 3.2 | 0.00 | 0.00 | 0.00 | 72 | 1015.3 |
| 20260504020629 | 8 | 209 | 0.0 | 3.2 | 0.00 | 0.00 | 0.00 | 71 | 1015.3 |
| 20260504020124 | 8 | 209 | 0.0 | 3.2 | 0.00 | 0.00 | 0.00 | 71 | 1015.3 |
| 20260504015624 | 8 | 209 | 1.6 | 3.2 | 0.00 | 0.00 | 0.00 | 69 | 1015.2 |
| 20260504015124 | 8 | 209 | 1.6 | 3.2 | 0.00 | 0.00 | 0.00 | 69 | 1015.2 |
| 20260504014624 | 8 | 209 | 1.6 | 3.2 | 0.00 | 0.00 | 0.00 | 68 | 1015.1 |
| 20260504014124 | 8 | 209 | 0.0 | 3.2 | 0.00 | 0.00 | 0.00 | 68 | 1015.1 |
| 20260504013624 | 9 | 209 | 0.0 | 3.2 | 0.00 | 0.00 | 0.00 | 66 | 1015.1 |
| 20260504013124 | 9 | 209 | 1.6 | 3.2 | 0.00 | 0.00 | 0.00 | 65 | 1014.9 |
| 20260504012624 | 9 | 209 | 1.6 | 3.2 | 0.00 | 0.00 | 0.00 | 64 | 1014.8 |
| 20260504012410 | 10 | 209 | 1.6 | 3.2 | 0.00 | 0.00 | 0.00 | 62 | 1014.9 |
| 20260504011624 | 10 | 209 | 1.6 | 3.2 | 0.00 | 0.00 | 0.00 | 61 | 1014.9 |
| 20260504011208 | 10 | 209 | 1.6 | 3.2 | 0.00 | 0.00 | 0.00 | 60 | 1014.9 |
| 20260504010622 | 10 | 209 | 0.0 | 1.6 | 0.00 | 0.00 | 0.00 | 63 | 1014.9 |
| 20260504010122 | 11 | 209 | 0.0 | 0.0 | 0.00 | 0.00 | 0.00 | 60 | 1014.8 |
| 20260504005621 | 11 | 209 | 0.0 | 0.0 | 0.00 | 0.00 | 0.00 | 62 | 1014.7 |
| 20260504005122 | 11 | 209 | 0.0 | 3.2 | 0.00 | 0.00 | 0.00 | 63 | 1014.7 |
| 20260504004622 | 11 | 209 | 1.6 | 6.4 | 0.00 | 0.00 | 0.00 | 62 | 1014.7 |
| 20260504004132 | 12 | 207 | 0.0 | 6.4 | 0.00 | 0.00 | 0.00 | 54 | 1014.7 |
| 20260504003625 | 12 | 223 | 0.0 | 1.6 | 0.00 | 0.00 | 0.00 | 53 | 1014.6 |
| 20260504003357 | 12 | 223 | 0.0 | 1.6 | 0.00 | 0.00 | 0.00 | 52 | 1014.5 |
| 20260504002629 | 13 | 223 | 0.0 | 0.0 | 0.00 | 0.00 | 0.00 | 52 | 1014.5 |
| 20260504002122 | 13 | 223 | 0.0 | 0.0 | 0.00 | 0.00 | 0.00 | 44 | 1014.4 |
| 20260504001654 | 14 | 223 | 0.0 | 0.0 | 0.00 | 0.00 | 0.00 | 45 | 1014.4 |
| 20260504001120 | 14 | 223 | 0.0 | 1.6 | 0.00 | 0.00 | 0.00 | 44 | 1014.4 |
| 20260504000619 | 15 | 223 | 0.0 | 1.6 | 0.00 | 0.00 | 0.00 | 42 | 1014.3 |
| 20260504000137 | 15 | 223 | 0.0 | 1.6 | 0.00 | 0.00 | 0.00 | 41 | 1014.3 |
| 20260503235851 | 15 | 223 | 0.0 | 3.2 | 0.00 | 0.00 | 0.00 | 40 | 1014.4 |
| 20260503235120 | 15 | 223 | 0.0 | 3.2 | 0.00 | 0.00 | 0.00 | 38 | 1014.3 |
| 20260503234854 | 16 | 222 | 0.0 | 1.6 | 0.00 | 0.00 | 0.00 | 39 | 1014.3 |
| 20260503234350 | 16 | 222 | 0.0 | 0.0 | 0.00 | 0.00 | 0.00 | 34 | 1014.3 |
| 20260503233619 | 16 | 222 | 0.0 | 4.8 | 0.00 | 0.00 | 0.00 | 35 | 1014.3 |
| 20260503233128 | 16 | 222 | 1.6 | 4.8 | 0.00 | 0.00 | 0.00 | 33 | 1014.2 |
| 20260503232630 | 17 | 222 | 1.6 | 4.8 | 0.00 | 0.00 | 0.00 | 34 | 1014.2 |
| 20260503232348 | 17 | 222 | 1.6 | 4.8 | 0.00 | 0.00 | 0.00 | 33 | 1014.2 |
| 20260503231627 | 17 | 219 | 0.0 | 4.8 | 0.00 | 0.00 | 0.00 | 35 | 1014.2 |
| 20260503231118 | 17 | 284 | 0.0 | 3.2 | 0.00 | 0.00 | 0.00 | 33 | 1014.1 |
| 20260503225618 | 17 | 295 | 0.0 | 4.8 | 0.00 | 0.00 | 0.00 | 34 | 1014.1 |
| 20260503225118 | 17 | 295 | 1.6 | 4.8 | 0.00 | 0.00 | 0.00 | 32 | 1014.0 |
| 20260503224629 | 17 | 295 | 1.6 | 4.8 | 0.00 | 0.00 | 0.00 | 32 | 1014.0 |
| 20260503224349 | 17 | 292 | 0.0 | 4.8 | 0.00 | 0.00 | 0.00 | 30 | 1013.9 |
| 20260503223617 | 17 | 283 | 0.0 | 3.2 | 0.00 | 0.00 | 0.00 | 30 | 1013.9 |
| 20260503223119 | 17 | 283 | 0.0 | 3.2 | 0.00 | 0.00 | 0.00 | 31 | 1014.0 |
| 20260503222618 | 17 | 273 | 1.6 | 9.7 | 0.00 | 0.00 | 0.00 | 30 | 1014.1 |
| 20260503222118 | 17 | 236 | 1.6 | 9.7 | 0.00 | 0.00 | 0.00 | 31 | 1014.1 |
| 20260503221618 | 17 | 296 | 1.6 | 11.3 | 0.00 | 0.00 | 0.00 | 33 | 1014.1 |
| 20260503221118 | 17 | 234 | 1.6 | 11.3 | 0.00 | 0.00 | 0.00 | 31 | 1014.2 |
| 20260503220613 | 17 | 209 | 1.6 | 4.8 | 0.00 | 0.00 | 0.00 | 32 | 1014.2 |
| 20260503220113 | 17 | 53 | 1.6 | 6.4 | 0.00 | 0.00 | 0.00 | 32 | 1014.3 |
| 20260503215118 | 18 | 239 | 1.6 | 8.0 | 0.00 | 0.00 | 0.00 | 31 | 1014.2 |
| 20260503214844 | 17 | 265 | 1.6 | 6.4 | 0.00 | 0.00 | 0.00 | 33 | 1014.2 |
| 20260503214113 | 17 | 247 | 3.2 | 9.7 | 0.00 | 0.00 | 0.00 | 33 | 1014.2 |
| 20260503213616 | 17 | 211 | 1.6 | 9.7 | 0.00 | 0.00 | 0.00 | 32 | 1014.2 |
| 20260503213108 | 17 | 16 | 1.6 | 4.8 | 0.00 | 0.00 | 0.00 | 32 | 1014.3 |
| 20260503212609 | 17 | 289 | 3.2 | 11.3 | 0.00 | 0.00 | 0.00 | 30 | 1014.3 |
| 20260503212108 | 17 | 225 | 4.8 | 14.5 | 0.00 | 0.00 | 0.00 | 32 | 1014.3 |
| 20260503211609 | 17 | 245 | 4.8 | 14.5 | 0.00 | 0.00 | 0.00 | 32 | 1014.3 |
| 20260503211339 | 18 | 275 | 3.2 | 6.4 | 0.00 | 0.00 | 0.00 | 32 | 1014.4 |
| 20260503210613 | 18 | 297 | 1.6 | 6.4 | 0.00 | 0.00 | 0.00 | 36 | 1014.4 |
| 20260503210109 | 17 | 297 | 1.6 | 3.2 | 0.00 | 0.00 | 0.00 | 34 | 1014.4 |
| 20260503205608 | 17 | 348 | 3.2 | 9.7 | 0.00 | 0.00 | 0.00 | 34 | 1014.4 |
| 20260503205107 | 17 | 336 | 3.2 | 9.7 | 0.00 | 0.00 | 0.00 | 33 | 1014.6 |
| 20260503204606 | 17 | 19 | 3.2 | 8.0 | 0.00 | 0.00 | 0.00 | 35 | 1014.6 |
| 20260503204106 | 17 | 298 | 3.2 | 8.0 | 0.00 | 0.00 | 0.00 | 33 | 1014.7 |
| 20260503203605 | 17 | 211 | 3.2 | 14.5 | 0.00 | 0.00 | 0.00 | 31 | 1014.7 |
| 20260503203102 | 17 | 254 | 4.8 | 17.7 | 0.00 | 0.00 | 0.00 | 34 | 1014.6 |
| 20260503202602 | 17 | 260 | 3.2 | 17.7 | 0.00 | 0.00 | 0.00 | 32 | 1014.8 |
| 20260503202102 | 17 | 263 | 3.2 | 12.9 | 0.00 | 0.00 | 0.00 | 31 | 1014.8 |
| 20260503201833 | 17 | 65 | 3.2 | 8.0 | 0.00 | 0.00 | 0.00 | 34 | 1014.8 |
| 20260503201333 | 17 | 11 | 4.8 | 11.3 | 0.00 | 0.00 | 0.00 | 37 | 1014.9 |
| 20260503200833 | 17 | 303 | 4.8 | 11.3 | 0.00 | 0.00 | 0.00 | 33 | 1014.9 |
| 20260503195602 | 17 | 340 | 1.6 | 8.0 | 0.00 | 0.00 | 0.00 | 33 | 1015.0 |
| 20260503195056 | 17 | 210 | 3.2 | 8.0 | 0.00 | 0.00 | 0.00 | 32 | 1015.1 |
| 20260503194542 | 17 | 335 | 3.2 | 6.4 | 0.00 | 0.00 | 0.00 | 35 | 1015.1 |
| 20260503193529 | 17 | 313 | 3.2 | 14.5 | 0.00 | 0.00 | 0.00 | 38 | 1015.4 |
| 20260503193013 | 17 | 54 | 3.2 | 8.0 | 0.00 | 0.00 | 0.00 | 38 | 1015.5 |
| 20260503192507 | 16 | 57 | 3.2 | 8.0 | 0.00 | 0.00 | 0.00 | 36 | 1015.6 |
| 20260503192001 | 17 | 190 | 3.2 | 8.0 | 0.00 | 0.00 | 0.00 | 36 | 1015.9 |
| 20260503191448 | 17 | 287 | 3.2 | 6.4 | 0.00 | 0.00 | 0.00 | 37 | 1015.8 |
| 20260503190940 | 17 | 324 | 3.2 | 4.8 | 0.00 | 0.00 | 0.00 | 36 | 1015.8 |
| 20260503190439 | 17 | 32 | 3.2 | 6.4 | 0.00 | 0.00 | 0.00 | 37 | 1016.0 |
| 20260503185924 | 16 | 182 | 3.2 | 12.9 | 0.00 | 0.00 | 0.00 | 35 | 1016.1 |
| 20260503185418 | 16 | 207 | 3.2 | 12.9 | 0.00 | 0.00 | 0.00 | 37 | 1016.1 |
| 20260503184912 | 16 | 348 | 3.2 | 11.3 | 0.00 | 0.00 | 0.00 | 39 | 1016.2 |
| 20260503184358 | 16 | 290 | 3.2 | 11.3 | 0.00 | 0.00 | 0.00 | 39 | 1016.4 |
| 20260503183617 | 16 | 339 | 3.2 | 14.5 | 0.00 | 0.00 | 0.00 | 40 | 1016.3 |
| 20260503182832 | 16 | 298 | 3.2 | 8.0 | 0.00 | 0.00 | 0.00 | 37 | 1016.3 |
| 20260503182557 | 16 | 305 | 3.2 | 8.0 | 0.00 | 0.00 | 0.00 | 37 | 1016.5 |
| 20260503182051 | 16 | 331 | 3.2 | 8.0 | 0.00 | 0.00 | 0.00 | 37 | 1016.5 |
| 20260503181306 | 15 | 241 | 3.2 | 11.3 | 0.00 | 0.00 | 0.00 | 41 | 1016.6 |
| 20260503181031 | 16 | 126 | 3.2 | 11.3 | 0.00 | 0.00 | 0.00 | 38 | 1016.7 |
| 20260503180254 | 15 | 316 | 1.6 | 6.4 | 0.00 | 0.00 | 0.00 | 41 | 1016.6 |
| 20260503180011 | 15 | 157 | 3.2 | 9.7 | 0.00 | 0.00 | 0.00 | 38 | 1016.6 |
| 20260503175234 | 15 | 121 | 4.8 | 11.3 | 0.00 | 0.00 | 0.00 | 39 | 1016.6 |
| 20260503174728 | 15 | 175 | 6.4 | 19.3 | 0.00 | 0.00 | 0.00 | 42 | 1016.8 |
| 20260503174445 | 15 | 238 | 6.4 | 19.3 | 0.00 | 0.00 | 0.00 | 40 | 1016.8 |
| 20260503173202 | 15 | 290 | 1.6 | 12.9 | 0.00 | 0.00 | 0.00 | 39 | 1016.8 |
| 20260503172919 | 14 | 245 | 1.6 | 6.4 | 0.00 | 0.00 | 0.00 | 42 | 1016.9 |
| 20260503172142 | 14 | 98 | 3.2 | 11.3 | 0.00 | 0.00 | 0.00 | 41 | 1017.0 |
| 20260503171636 | 14 | 219 | 3.2 | 11.3 | 0.00 | 0.00 | 0.00 | 40 | 1017.0 |
| 20260503171122 | 14 | 262 | 3.2 | 9.7 | 0.00 | 0.00 | 0.00 | 40 | 1017.0 |
| 20260503170616 | 13 | 186 | 3.2 | 8.0 | 0.00 | 0.00 | 0.00 | 44 | 1017.2 |
| 20260503170110 | 13 | 288 | 1.6 | 8.0 | 0.00 | 0.00 | 0.00 | 41 | 1017.4 |
| 20260503160157 | 13 | 81 | 3.2 | 11.3 | 0.00 | 0.00 | 0.00 | 44 | 1018.0 |
| 20260503150754 | 12 | 275 | 3.2 | 12.9 | 0.00 | 0.00 | 0.00 | 50 | 1018.3 |
| 20260503150518 | 11 | 246 | 4.8 | 11.3 | 0.00 | 0.00 | 0.00 | 44 | 1018.4 |
| 20260503131122 | 9 | 271 | 3.2 | 8.0 | 0.00 | 0.00 | 0.00 | 54 | 1018.3 |
| 20260503130607 | 9 | 273 | 3.2 | 6.4 | 0.00 | 0.00 | 0.00 | 54 | 1018.3 |
| 20260503110523 | 4 | 263 | 0.0 | 4.8 | 0.00 | 0.00 | 0.00 | 77 | 1017.6 |
| 20260503090510 | 5 | 22 | 3.2 | 6.4 | 0.00 | 0.00 | 0.00 | 76 | 1015.5 |
| 20260503081510 | 4 | 36 | 0.0 | 1.6 | 0.00 | 0.00 | 0.00 | 84 | 1015.4 |
| 20260503081012 | 4 | 36 | 0.0 | 3.2 | 0.00 | 0.00 | 0.00 | 83 | 1015.3 |
| 20260503080511 | 4 | 36 | 0.0 | 3.2 | 0.00 | 0.00 | 0.00 | 83 | 1015.3 |
| 20260503072741 | 5 | 36 | 0.0 | 1.6 | 0.00 | 0.00 | 0.00 | 78 | 1015.1 |
| 20260503072011 | 5 | 36 | 0.0 | 1.6 | 0.00 | 0.00 | 0.00 | 76 | 1015.0 |
| 20260503071511 | 5 | 36 | 0.0 | 0.0 | 0.00 | 0.00 | 0.00 | 75 | 1015.0 |
| 20260503071011 | 5 | 36 | 0.0 | 0.0 | 0.00 | 0.00 | 0.00 | 75 | 1015.0 |
| 20260503070742 | 5 | 36 | 0.0 | 0.0 | 0.00 | 0.00 | 0.00 | 74 | 1014.9 |
| 20260503054944 | 7 | 36 | 3.2 | 4.8 | 0.00 | 0.00 | 0.00 | 65 | 1014.5 |
| 20260503054443 | 8 | 36 | 3.2 | 4.8 | 0.00 | 0.00 | 0.00 | 65 | 1014.4 |
| 20260503053941 | 8 | 36 | 3.2 | 4.8 | 0.00 | 0.00 | 0.00 | 65 | 1014.5 |
| 20260503053436 | 8 | 36 | 3.2 | 6.4 | 0.00 | 0.00 | 0.00 | 64 | 1014.5 |
| 20260503052935 | 8 | 34 | 3.2 | 6.4 | 0.00 | 0.00 | 0.00 | 64 | 1014.5 |
| 20260503052201 | 8 | 38 | 3.2 | 4.8 | 0.00 | 0.00 | 0.00 | 63 | 1014.4 |
| 20260503050933 | 8 | 39 | 3.2 | 6.4 | 0.00 | 0.00 | 0.00 | 63 | 1014.3 |
| 20260503050430 | 8 | 40 | 3.2 | 4.8 | 0.00 | 0.00 | 0.00 | 63 | 1014.3 |
| 20260503045931 | 9 | 40 | 3.2 | 4.8 | 0.00 | 0.00 | 0.00 | 61 | 1014.3 |